Simultaneous Nadir Overpasses (SNOs) Predictions

Prediction of SNOs between GOES-15 and TERRA Satellite Orbit:

Table of predicted SNOs for the next 14.0 days since TLE Epoch: 2/10/2013
Index Date Time (GOES-15) GOES-15 Lat,Lon TERRA Lat,Lon Distance(km) Time Diff (sec)
1 02/10/2013 19:21:25 0.05,-134.92 -0.45,-132.59 264.62 80
2 02/11/2013 07:42:49 -0.05,-134.96 -0.64,-137.79 320.75 80
3 02/13/2013 07:27:56 -0.05,-135.04 -0.03,-134.82 24.46 80
4 02/15/2013 07:15:44 -0.05,-135.11 0.65,-131.87 368.99 80
5 02/15/2013 19:36:58 0.05,-135.11 0.46,-137.02 217.96 80
6 02/17/2013 19:27:26 0.05,-135.17 -0.16,-134.06 126.04 80
7 02/18/2013 07:48:49 -0.05,-135.22 -0.93,-139.25 459.26 80
8 02/19/2013 19:15:14 0.04,-135.23 -0.84,-131.11 469.38 80
9 02/20/2013 07:36:37
